[[{"header":{"parameterUnit":"m.s-1","parameterCategory":1,"la1":30.2991,"la2":30.254,"lo1":-89.0895,"lo2":-89.0444,"dy":0.0017,"dx":0.0017,"nx":28,"ny":28,"refTime":"2025-01-22T09:00:00:Z","depth":0,"parameterNumber":2,"parameterNumberName":"U-component_of_WINDS"},"data":[0,0,0,0,0,0,0,0,0,0,0,0,0,0,0,0,0,0,0,0,0,0,0,0,0,0,0,0,0,0,0,0,0,0,0,0,0,0,0,0,0,0,0,0,0,0,0,0,0,0,0,0,0,0,0,0,0,0,0.5785,0.5784,0,0.5744,0.5744,0.5743,0.5723,0.5723,0.5723,0.5723,0.5678,0.5677,0.5676,0,0,0,0,0,0,0,0,0,0,0,0,0,0.5842,0.5841,0.5785,0.5784,0.5784,0.5744,0.5744,0.5743,0.5723,0.5723,0.5723,0.5723,0.5679,0.5677,0.5676,0,0,0,0,0,0,0,0,0,0,0,0,0,0.5811,0.5841,0.5785,0.5769,0.5767,0.5744,0.5744,0.5743,0.5723,0.5723,0.5723,0.5723,0.5679,0.5678,0.5676,0.5665,0,0,0.5671,0.567,0,0,0,0,0,0,0,0,0.5813,0.5809,0.5772,0.577,0.5768,0.5739,0.5748,0.5717,0.5723,0.5739,0.5723,0.5723,0.5698,0.5695,0.5687,0.5663,0.5661,0.567,0.5669,0.5669,0.5668,0,0,0,0,0,0,0,0.5815,0.5811,0.5769,0.5771,0.5769,0.5763,0.5759,0.5742,0.5719,0.5738,0.5736,0.5732,0.5697,0.5689,0.5686,0.5661,0.567,0.5669,0.5668,0.5667,0.5627,0.5627,0,0,0,0,0,0,0.582,0.5813,0.577,0.5767,0.5791,0.5762,0.5757,0.5748,0.5719,0.5715,0.5732,0.5731,0.5692,0.5688,0.5684,0.567,0.5669,0.5667,0.5666,0.5627,0.5627,0.5627,0,0,0,0,0,0,0.5821,0.5817,0.5771,0.579,0.5783,0.5761,0.5751,0.5747,0.5739,0.5715,0.5711,0.5728,0.5692,0.5687,0.5671,0.5669,0.5666,0.5665,0.5627,0.5627,0.5627,0.5642,0,0,0,0,0,0,0.5823,0.5817,0.5813,0.579,0.5783,0.5759,0.5751,0.5746,0.5736,0.5735,0.571,0.5706,0.5692,0.5673,0.5669,0.5666,0.5663,0.5627,0.5627,0.5627,0.5642,0.5643,0.5644,0,0,0,0,0,0.5825,0.5819,0.5813,0.5808,0.5777,0.5759,0.5755,0.5739,0.5736,0.5732,0.5717,0.5707,0.567,0.5672,0.5667,0.5663,0.5627,0.5627,0.5627,0.5641,0.5643,0.5644,0,0,0,0,0,0,0.5841,0.5815,0.5809,0.5794,0.5779,0.5755,0.5749,0.5741,0.5725,0.5724,0.5704,0.5699,0.5685,0.5672,0.5675,0.5652,0.5647,0.5646,0.566,0.5661,0.5662,0.5665,0.5662,0,0,0,0,0,0.5843,0.5831,0.5809,0.5798,0.5791,0.5772,0.5763,0.5752,0.5735,0.5728,0.5712,0.5695,0.568,0.567,0.5654,0.564,0.5635,0.5636,0.5637,0.5637,0.5636,0.5628,0.5629,0.5626,0.5626,0.5626,0,0,0.5847,0.5831,0.5825,0.5801,0.5788,0.5775,0.5766,0.5753,0.5743,0.5726,0.571,0.5697,0.5677,0.5662,0.5655,0.5652,0.5636,0.5637,0.5638,0.5637,0.5628,0.5629,0.5629,0.5626,0.5626,0.5626,0,0,0.5847,0.5834,0.5824,0.5812,0.5793,0.578,0.5778,0.5755,0.5747,0.5731,0.5718,0.5705,0.5679,0.5666,0.5655,0.5652,0.5642,0.5648,0.5652,0.5644,0.5644,0.5645,0.5643,0.5643,0.5647,0.5647,0.5647,0,0.5854,0.5835,0.582,0.5808,0.5798,0.5783,0.5773,0.5761,0.5737,0.573,0.5728,0.5695,0.5681,0.5662,0.5662,0.5654,0.565,0.565,0.5646,0.5646,0.5646,0.5644,0.5644,0.5648,0.5648,0.5647,0.5647,0,0.5844,0.5831,0.5825,0.5804,0.5794,0.5782,0.5765,0.5756,0.5747,0.5735,0.5718,0.5701,0.5682,0.5677,0.5667,0.5657,0.5656,0.565,0.5644,0.5647,0.5645,0.5644,0.5649,0.5648,0.5648,0.5648,0,0,0.5852,0.5824,0.5822,0.5812,0.5791,0.578,0.5768,0.5751,0.5743,0.5728,0.5717,0.5696,0.5691,0.5679,0.5668,0.5661,0.566,0.5656,0.5655,0.5657,0.5648,0.5652,0.5652,0.5654,0.5654,0.5653,0.565,0,0.5849,0.5828,0.5815,0.5798,0.5786,0.5773,0.5763,0.5748,0.5736,0.5724,0.5711,0.5696,0.569,0.5683,0.5676,0.5662,0.5658,0.5662,0.5643,0.5642,0.5648,0.5651,0.5655,0.5652,0.5649,0.5649,0.5649,0,0.5842,0.5828,0.5812,0.5792,0.5786,0.5777,0.5761,0.5749,0.5732,0.5724,0.5712,0.5701,0.5688,0.5684,0.5666,0.5669,0.566,0.5652,0.5652,0.5649,0.5645,0.5648,0.5651,0.565,0.5647,0.5647,0.5648,0,0.585,0.5827,0.5814,0.5806,0.5783,0.5777,0.5767,0.575,0.5741,0.5726,0.572,0.5703,0.5694,0.5681,0.5666,0.5665,0.5649,0.5644,0.5641,0.5641,0.5637,0.5638,0.5639,0.5633,0.5633,0.5633,0.5633,0,0.5847,0.5837,0.5817,0.5809,0.5797,0.5782,0.5771,0.576,0.5745,0.5734,0.5722,0.5712,0.5692,0.568,0.5668,0.5654,0.565,0.5643,0.564,0.5644,0.5645,0.5637,0.5637,0.5633,0.5633,0.5633,0.5633,0,0.5853,0.5839,0.5824,0.5804,0.5799,0.5791,0.5774,0.5765,0.5753,0.574,0.5736,0.5717,0.5702,0.5686,0.5665,0.5657,0.5643,0.5639,0.5649,0.5647,0.5645,0.5646,0.5642,0.564,0.5636,0.5636,0.5636,0,0.5852,0.5845,0.5824,0.5817,0.5807,0.5795,0.5786,0.577,0.5761,0.5742,0.5736,0.572,0.5706,0.5683,0.5667,0.5651,0.5646,0.5646,0.5643,0.5648,0.5645,0.5646,0.5645,0.5646,0.5646,0.5646,0.5646,0,0.5852,0.5846,0.5834,0.5819,0.5808,0.5796,0.5783,0.5777,0.5759,0.5749,0.5734,0.5724,0.5703,0.5688,0.567,0.5659,0.5649,0.5647,0.5646,0.5649,0.5656,0.5652,0.5651,0.5647,0.5647,0.5647,0.5647,0.5647,0.5854,0.5847,0.5832,0.5819,0.5807,0.5796,0.5787,0.5775,0.5762,0.5745,0.5737,0.5722,0.5705,0.5681,0.567,0.5658,0.5655,0.5653,0.5652,0.5652,0.5653,0.5658,0.5655,0.5655,0.5654,0.5654,0.5654,0,0.5854,0.5843,0.5831,0.5814,0.5804,0.5797,0.5782,0.5774,0.5761,0.5747,0.5735,0.5717,0.5703,0.5686,0.567,0.5663,0.5659,0.5659,0.5659,0.5657,0.5656,0.5659,0.5664,0.5664,0.5664,0.5664,0.5664,0.5664,0.5852,0.5839,0.5831,0.5813,0.5803,0.5789,0.5781,0.577,0.5759,0.5741,0.5729,0.5718,0.5703,0.5686,0.5672,0.5668,0.5662,0.5664,0.5659,0.5658,0.5657,0.5656,0.5659,0.5663,0.5663,0.566,0.566,0.566]},{"header":{"parameterUnit":"m.s-1","parameterCategory":1,"la1":30.2991,"la2":30.254,"lo1":-89.0895,"lo2":-89.0444,"dy":0.0017,"dx":0.0017,"nx":28,"ny":28,"refTime":"2025-01-22T09:00:00:Z","depth":0,"parameterNumber":3,"parameterNumberName":"V-component_of_WINDS"},"data":[0,0,0,0,0,0,0,0,0,0,0,0,0,0,0,0,0,0,0,0,0,0,0,0,0,0,0,0,0,0,0,0,0,0,0,0,0,0,0,0,0,0,0,0,0,0,0,0,0,0,0,0,0,0,0,0,0,0,-4.2152,-4.2154,0,-4.2311,-4.2313,-4.2315,-4.2282,-4.2279,-4.2276,-4.2273,-4.2434,-4.2441,-4.2448,0,0,0,0,0,0,0,0,0,0,0,0,0,-4.1817,-4.1823,-4.2152,-4.2154,-4.2156,-4.2311,-4.2313,-4.2315,-4.2282,-4.2279,-4.2275,-4.2272,-4.2432,-4.244,-4.2448,0,0,0,0,0,0,0,0,0,0,0,0,0,-4.1968,-4.1826,-4.2152,-4.2158,-4.216,-4.2311,-4.2313,-4.2316,-4.2283,-4.2279,-4.2274,-4.227,-4.2429,-4.2439,-4.245,-4.2603,0,0,-4.2482,-4.2486,0,0,0,0,0,0,0,0,-4.196,-4.198,-4.2155,-4.2158,-4.2161,-4.2272,-4.2254,-4.2412,-4.2284,-4.2236,-4.2273,-4.2268,-4.2384,-4.2398,-4.2437,-4.261,-4.2617,-4.2483,-4.2489,-4.2494,-4.2497,0,0,0,0,0,0,0,-4.1949,-4.1973,-4.2215,-4.2158,-4.2161,-4.2152,-4.2169,-4.2284,-4.2333,-4.224,-4.2238,-4.2258,-4.2384,-4.2427,-4.2441,-4.262,-4.2482,-4.2492,-4.2498,-4.2502,-4.2925,-4.293,0,0,0,0,0,0,-4.1937,-4.1965,-4.221,-4.222,-4.2047,-4.2162,-4.2181,-4.2241,-4.2331,-4.2341,-4.2261,-4.2255,-4.2411,-4.2428,-4.2446,-4.2631,-4.2494,-4.2503,-4.2509,-4.292,-4.2926,-4.2932,0,0,0,0,0,0,-4.193,-4.1959,-4.2204,-4.2092,-4.2122,-4.2173,-4.224,-4.2246,-4.2289,-4.2347,-4.2355,-4.2296,-4.2408,-4.2431,-4.2564,-4.2636,-4.2508,-4.2518,-4.2914,-4.2922,-4.2929,-4.3001,0,0,0,0,0,0,-4.192,-4.1956,-4.2016,-4.2094,-4.2129,-4.232,-4.2245,-4.2253,-4.2308,-4.2302,-4.2382,-4.2391,-4.2407,-4.2548,-4.2574,-4.2648,-4.2526,-4.2908,-4.2918,-4.2927,-4.2993,-4.301,-4.3025,0,0,0,0,0,-4.1908,-4.203,-4.2019,-4.2049,-4.2204,-4.2324,-4.2344,-4.236,-4.2314,-4.2373,-4.241,-4.2389,-4.2624,-4.2562,-4.2591,-4.2669,-4.2904,-4.2915,-4.2926,-4.2985,-4.3007,-4.3025,0,0,0,0,0,0,-4.1958,-4.204,-4.2029,-4.2179,-4.2245,-4.2318,-4.2394,-4.2382,-4.2462,-4.2453,-4.2468,-4.2487,-4.2622,-4.2659,-4.2589,-4.2821,-4.2757,-4.2774,-4.2792,-4.2813,-4.2829,-4.2817,-4.2535,0,0,0,0,0,-4.1987,-4.2079,-4.2145,-4.2271,-4.2304,-4.2344,-4.2396,-4.2403,-4.2471,-4.2499,-4.2546,-4.2612,-4.2701,-4.2759,-4.2844,-4.2998,-4.3014,-4.3066,-4.3082,-4.3095,-4.311,-4.3193,-4.3216,-4.2968,-4.2968,-4.2968,0,0,-4.2047,-4.2103,-4.216,-4.2282,-4.2334,-4.2427,-4.2367,-4.2469,-4.2538,-4.2514,-4.2642,-4.2679,-4.2754,-4.2898,-4.2963,-4.2933,-4.3182,-4.3109,-4.3119,-4.3127,-4.3206,-4.323,-4.3251,-4.2975,-4.2974,-4.2973,0,0,-4.2204,-4.2256,-4.2366,-4.2419,-4.2499,-4.2524,-4.255,-4.2625,-4.2649,-4.2778,-4.2762,-4.2844,-4.2997,-4.3051,-4.3098,-4.3275,-4.3258,-4.3302,-4.3387,-4.3468,-4.3487,-4.3505,-4.3567,-4.3589,-4.3317,-4.3317,-4.3317,0,-4.2268,-4.2409,-4.2424,-4.2528,-4.2582,-4.2565,-4.2676,-4.2727,-4.2829,-4.2867,-4.2831,-4.3022,-4.3072,-4.3227,-4.327,-4.331,-4.334,-4.3293,-4.3484,-4.3501,-4.3518,-4.3577,-4.3601,-4.3322,-4.3321,-4.3321,-4.332,0,-4.2484,-4.2582,-4.2662,-4.2762,-4.2824,-4.2931,-4.2962,-4.3024,-4.3025,-4.3053,-4.3184,-4.3243,-4.3339,-4.3377,-4.3379,-4.3533,-4.3511,-4.348,-4.3415,-4.3546,-4.3602,-4.3625,-4.3329,-4.3327,-4.3326,-4.3324,0,0,-4.2677,-4.2784,-4.2813,-4.2858,-4.2943,-4.3019,-4.3125,-4.3219,-4.3271,-4.3343,-4.3431,-4.356,-4.3532,-4.3586,-4.3593,-4.3664,-4.38,-4.3624,-4.3626,-4.3654,-4.3972,-4.3995,-4.4021,-4.3789,-4.3793,-4.3797,-4.3965,0,-4.2842,-4.3028,-4.3045,-4.3212,-4.3302,-4.3287,-4.3379,-4.3441,-4.3471,-4.3551,-4.3583,-4.3674,-4.363,-4.3662,-4.3732,-4.3769,-4.3864,-4.3757,-4.387,-4.3874,-4.3851,-4.4051,-4.4075,-4.4231,-4.3988,-4.3991,-4.3994,0,-4.3058,-4.3136,-4.3313,-4.3385,-4.3423,-4.3506,-4.3593,-4.367,-4.374,-4.3756,-4.3817,-4.3815,-4.3922,-4.3854,-4.4002,-4.3929,-4.3977,-4.4002,-4.4008,-4.4019,-4.3942,-4.4066,-4.4282,-4.4305,-4.4029,-4.4026,-4.4024,0,-4.318,-4.3329,-4.3454,-4.3493,-4.3581,-4.3639,-4.3678,-4.3743,-4.3799,-4.3875,-4.3911,-4.3999,-4.4047,-4.4115,-4.4136,-4.4085,-4.4283,-4.4217,-4.4299,-4.4298,-4.4341,-4.4338,-4.4567,-4.4373,-4.4372,-4.4372,-4.4371,0,-4.3362,-4.347,-4.351,-4.3587,-4.3707,-4.3725,-4.3843,-4.3879,-4.3938,-4.402,-4.4013,-4.409,-4.4114,-4.4196,-4.4213,-4.4332,-4.4354,-4.437,-4.4373,-4.4371,-4.4368,-4.4401,-4.4391,-4.4378,-4.4377,-4.4376,-4.4375,0,-4.3518,-4.355,-4.3684,-4.3756,-4.3777,-4.3863,-4.3924,-4.3997,-4.4025,-4.413,-4.4156,-4.4199,-4.4295,-4.4323,-4.4438,-4.445,-4.459,-4.4583,-4.4566,-4.4566,-4.4646,-4.4638,-4.4904,-4.4939,-4.4723,-4.4725,-4.4726,0,-4.3632,-4.3715,-4.3796,-4.3851,-4.3892,-4.3981,-4.4038,-4.4058,-4.4117,-4.4202,-4.4265,-4.436,-4.4436,-4.459,-4.4632,-4.4719,-4.4714,-4.4801,-4.4728,-4.4722,-4.4715,-4.471,-4.4717,-4.4815,-4.4817,-4.4819,-4.4821,0,-4.383,-4.3841,-4.3923,-4.4011,-4.4078,-4.4148,-4.4216,-4.4261,-4.429,-4.4357,-4.4455,-4.4515,-4.4632,-4.4725,-4.4814,-4.4854,-4.4843,-4.4844,-4.4867,-4.4865,-4.4852,-4.4859,-4.4604,-4.4838,-4.4836,-4.4835,-4.4834,-4.4833,-4.3968,-4.4041,-4.4109,-4.42,-4.4253,-4.4316,-4.4388,-4.4425,-4.4507,-4.4604,-4.4611,-4.4717,-4.4783,-4.4902,-4.4946,-4.5028,-4.5003,-4.5037,-4.5045,-4.5054,-4.506,-4.4839,-4.5045,-4.5044,-4.5044,-4.5043,-4.5043,0,-4.4164,-4.4207,-4.4291,-4.4386,-4.4458,-4.4441,-4.4514,-4.4575,-4.4668,-4.4732,-4.4807,-4.4919,-4.501,-4.5059,-4.5149,-4.5206,-4.5203,-4.5229,-4.5224,-4.5233,-4.5078,-4.5048,-4.523,-4.5229,-4.5229,-4.5229,-4.5229,-4.5229,-4.4275,-4.4397,-4.4416,-4.4564,-4.4606,-4.471,-4.4753,-4.481,-4.4861,-4.4987,-4.5062,-4.5093,-4.5151,-4.5245,-4.5327,-4.5339,-4.5372,-4.5401,-4.541,-4.5264,-4.5245,-4.5226,-4.5198,-4.5408,-4.5409,-4.5559,-4.556,-4.5561]}]]